Location: Almena Post Office
(39.8928°N, 99.7066°W)
Time: 18:46:46
(UTC+00:00)

Cosmos 2228 Rocket - Pass Details

Date: 27 February 2020
Orbit: 618 x 652 km, 82.5° (Epoch: 03 April)

Event Time Altitude Azimuth Distance (km) Brightness Sun altitude
Rises 12:05:52 0° 173° (S) 2,884 6.6 -14.2°
Reaches altitude 10° 12:08:07 10° 168° (SSE) 1,986 5.8 -13.7°
Maximum altitude 12:12:22 50° 93° (E) 800 4.1 -12.9°
Drops below altitude 10° 12:16:41 10° 18° (NNE) 2,018 5.9 -12.1°
Sets 12:18:59 0° 14° (NNE) 2,936 6.7 -11.6°
